TimeCDT,TemperatureF,Dew PointF,Humidity,Sea Level PressureIn,VisibilityMPH,Wind Direction,Wind SpeedMPH,Gust SpeedMPH,PrecipitationIn,Events,Conditions,WindDirDegrees,DateUTC
12:53 AM,73.0,70.0,90,30.08,10.0,SE,4.6,-,N/A,,Scattered Clouds,140,2013-05-27 05:53:00
1:53 AM,73.0,70.0,90,30.07,10.0,SSE,3.5,-,N/A,,Scattered Clouds,160,2013-05-27 06:53:00
2:11 AM,73.4,71.6,94,30.06,10.0,Calm,Calm,-,N/A,,Mostly Cloudy,0,2013-05-27 07:11:00
2:39 AM,71.6,69.8,94,30.05,10.0,SSE,3.5,-,N/A,,Scattered Clouds,150,2013-05-27 07:39:00
2:53 AM,72.0,70.0,93,30.06,10.0,SE,3.5,-,N/A,,Clear,140,2013-05-27 07:53:00
3:53 AM,69.1,69.1,100,30.06,5.0,SSE,4.6,-,N/A,,Clear,150,2013-05-27 08:53:00
4:53 AM,69.1,68.0,96,30.05,8.0,SE,3.5,-,N/A,,Clear,140,2013-05-27 09:53:00
5:53 AM,69.1,68.0,96,30.06,8.0,SE,5.8,-,N/A,,Partly Cloudy,140,2013-05-27 10:53:00
6:53 AM,71.1,70.0,96,30.07,8.0,SE,5.8,-,N/A,,Partly Cloudy,140,2013-05-27 11:53:00
7:53 AM,73.0,71.1,93,30.09,10.0,SE,9.2,-,N/A,,Partly Cloudy,140,2013-05-27 12:53:00
8:47 AM,75.2,71.6,89,30.09,10.0,SSE,9.2,-,N/A,,Mostly Cloudy,160,2013-05-27 13:47:00
8:53 AM,75.9,72.0,87,30.10,10.0,SSE,9.2,-,N/A,,Mostly Cloudy,150,2013-05-27 13:53:00
9:40 AM,78.8,71.6,78,30.09,10.0,SSE,9.2,-,N/A,,Overcast,150,2013-05-27 14:40:00
9:53 AM,78.1,71.1,79,30.10,10.0,South,8.1,-,N/A,,Mostly Cloudy,170,2013-05-27 14:53:00
10:11 AM,78.8,71.6,78,30.08,10.0,South,8.1,-,N/A,,Scattered Clouds,170,2013-05-27 15:11:00
10:53 AM,81.0,69.1,67,30.09,10.0,South,9.2,17.3,N/A,,Scattered Clouds,180,2013-05-27 15:53:00
11:53 AM,84.0,69.1,61,30.08,10.0,South,6.9,-,N/A,,Clear,170,2013-05-27 16:53:00
12:53 PM,84.9,66.9,55,30.06,10.0,South,9.2,-,N/A,,Partly Cloudy,180,2013-05-27 17:53:00
1:53 PM,87.1,66.9,51,30.04,10.0,South,9.2,-,N/A,,Scattered Clouds,190,2013-05-27 18:53:00
2:53 PM,87.1,68.0,53,30.01,10.0,South,10.4,-,N/A,,Mostly Cloudy,170,2013-05-27 19:53:00
3:53 PM,87.1,64.0,46,30.00,10.0,SSW,10.4,-,N/A,,Partly Cloudy,210,2013-05-27 20:53:00
4:53 PM,87.1,62.1,43,29.99,10.0,South,15.0,19.6,N/A,,Clear,190,2013-05-27 21:53:00
5:53 PM,86.0,64.0,48,29.97,10.0,South,9.2,-,N/A,,Clear,180,2013-05-27 22:53:00
6:53 PM,84.0,64.0,51,29.97,10.0,South,10.4,-,N/A,,Clear,190,2013-05-27 23:53:00
7:53 PM,80.1,66.0,62,29.97,10.0,South,5.8,-,N/A,,Clear,170,2013-05-28 00:53:00
8:53 PM,78.1,64.9,64,29.98,10.0,South,6.9,-,N/A,,Clear,170,2013-05-28 01:53:00
9:53 PM,71.1,66.0,84,29.99,10.0,SSE,6.9,-,N/A,,Clear,150,2013-05-28 02:53:00
10:53 PM,73.0,66.9,81,30.02,10.0,South,4.6,-,N/A,,Clear,170,2013-05-28 03:53:00
11:53 PM,69.1,66.9,93,30.02,10.0,SE,5.8,-,N/A,,Clear,140,2013-05-28 04:53:00